Location: Limoges
(45.8354°N, 1.2645°E)
Time: 12:01:55
(UTC+01:00)

Vanguard 2 - Visible Passes

Search period start: 22 February 2024 00:00
Search period end: 03 March 2024 00:00
Orbit: 553 x 2919 km, 32.9° (Epoch: 21 February)

Date Brightness Start Highest point End Pass type
(mag) Time Alt. Az. Time Alt. Az. Time Alt. Az.
22 Feb 11.4 04:42:29 11° S 04:42:29 11° S 04:42:57 10° S visible
22 Feb 10.5 19:59:31 10° SSW 20:08:55 29° SE 20:15:31 22° ESE visible
22 Feb 10.3 22:05:36 10° SW 22:16:43 47° S 22:16:43 47° S visible
23 Feb 11.2 00:14:19 10° WSW 00:17:55 21° WSW 00:17:55 21° WSW visible
23 Feb 10.4 20:13:48 10° SSW 20:23:34 34° SSE 20:29:51 25° ESE visible
23 Feb 10.3 22:20:29 10° WSW 22:31:03 48° SSW 22:31:03 48° SSW visible
24 Feb 11.3 00:29:30 10° W 00:32:15 18° WSW 00:32:15 18° WSW visible
24 Feb 10.3 20:28:17 10° SW 20:38:19 39° SSE 20:44:08 29° ESE visible
24 Feb 10.3 22:35:28 10° WSW 22:45:20 46° SSW 22:45:20 46° SSW visible
25 Feb 11.5 00:44:44 10° W 00:46:31 15° W 00:46:31 15° W visible
25 Feb 10.2 20:42:57 10° SW 20:53:08 42° SSE 20:58:23 33° ESE visible
25 Feb 10.4 22:50:30 10° WSW 22:59:34 44° SW 22:59:34 44° SW visible
26 Feb 11.6 01:00:04 10° W 01:00:45 12° W 01:00:45 12° W visible
26 Feb 10.4 18:52:21 10° SSW 18:59:35 25° SE 19:09:40 10° E visible
26 Feb 10.1 20:57:43 10° SW 21:08:02 45° SSE 21:12:34 37° SE visible
26 Feb 10.5 23:05:36 10° WSW 23:13:45 39° SW 23:13:45 39° SW visible
27 Feb 10.2 19:06:35 10° SSW 19:14:12 30° SSE 19:25:15 10° E visible
27 Feb 10.1 21:12:36 10° WSW 21:22:59 47° S 21:26:44 40° SE visible
27 Feb 10.6 23:20:45 10° WSW 23:27:55 35° SW 23:27:55 35° SW visible
28 Feb 10.1 19:21:03 10° SW 19:28:55 34° SSE 19:39:42 12° E visible
28 Feb 10.1 21:27:33 10° WSW 21:37:58 47° S 21:40:52 43° SSE visible
28 Feb 10.8 23:35:58 10° W 23:42:03 30° WSW 23:42:03 30° WSW visible
29 Feb 10.0 19:35:41 10° SW 19:43:43 37° SSE 19:53:49 15° ESE visible
29 Feb 10.1 21:42:33 10° WSW 21:52:59 46° S 21:55:00 44° SSE visible
29 Feb 11.0 23:51:17 10° W 23:56:11 24° WSW 23:56:11 24° WSW visible
01 Mar 9.9 19:50:26 10° SW 19:58:35 40° SSE 20:07:56 18° ESE visible
01 Mar 10.1 21:57:38 10° WSW 22:08:00 44° S 22:09:07 43° S visible
02 Mar 11.1 00:06:45 10° W 00:10:17 19° WSW 00:10:17 19° WSW visible
02 Mar 9.9 20:05:18 10° WSW 20:13:30 41° S 20:22:03 20° ESE visible
02 Mar 10.2 22:12:46 10° WSW 22:23:01 40° S 22:23:14 40° S visible
